{"data":{"norad_id":57992,"intl_designator":"2023-153B","name":"STARLINK-30534","alt_names":[],"object_type":"PAYLOAD","status":"ACTIVE","operator":null,"country":"US","launch_date":"2023-10-05","launch_site_code":"AFETR","launch_vehicle":null,"mission":null,"orbit_class":"UNKNOWN","rcs_meters":null,"size_class":null,"mass_kg":null,"dimensions":null,"purposes":["comms"],"wikipedia_slug":null,"has_3d_model":false,"image_url":null,"decayed_at":null,"tle_current":{"epoch":"2026-09-20T02:39:03.532320Z","epoch_age_seconds":171221,"freshness":"FRESH","line1":"1 57992U 23153B   26263.11045755  .00000397  00000+0  23937-4 0  9999","line2":"2 57992  43.0040  48.8020 0001367 268.2700  91.7995 15.27578566164530","mean_motion":15.27578566,"eccentricity":0.0001367,"inclination_deg":43.004,"raan_deg":48.802,"arg_perigee_deg":268.27,"mean_anomaly_deg":91.7995,"bstar":2.3937e-5,"rev_number":16453,"period_min":94.266837205675,"perigee_km":482.11546522858,"apogee_km":483.9913146812,"semimajor_km":6861.1903899549,"source":"CELESTRAK","updated_at":"2026-09-21T09:00:33.753134Z"}}}